Flag for Canada Weather past 2 weeks in Toronto, Ontario, Canada

Now
84 °F

Partly sunny.


Feels Like: 86 °F
Forecast: 69 / 87 °F
Wind: 5 mph from South

Location: Toronto Pearson International Airport

Current Time: Jul 29, 2015 at 10:21:20 AM

Latest Report: Jul 29, 2015 at 10:00 AM


Visibility: 15 mi

Pressure: 29.96 "Hg

Humidity: 51%

Dew point: 64 °F

Location of TorontoLocation

Historic Weather in Toronto — Graph

°F

Toronto temperature yesterday

Maximum temperature yesterday: 91 °F (at 3:00 PM)
Minimum temperature yesterday: 68 °F (at 5:00 AM)
Average temperature yesterday: 80 °F

Past Weeks' High & Low Weather Summary

 TemperatureHumidityPressure
High91 °F (Jul 28, 3:00 PM)100% (Jul 18, 6:52 AM)30.14 "Hg (Jul 18, 6:52 AM)
Low54 °F (Jul 15, 6:00 AM)30% (Jul 24, 12:00 PM)29.50 "Hg (Jul 14, 4:00 PM)
Average73 °F61%29.88 "Hg
* Reported Jul 14 9:00 AM — Jul 29 9:00 AM, Toronto, Weather by CustomWeather, © 2015

Note: Actual official high and low records may vary slightly from our data, if they occured in-between our weather recording intervals... More about our weather records

Advertising

Toronto weather history for previous 24 hours

 ConditionsComfort  
Time TempWeatherWind HumidityBarometerVisibility
9:00 AM
Wed, Jul 29
81 °FPartly sunny.3 mph58%29.96 "Hg15 mi
8:00 AM75 °FPartly sunny.2 mph69%29.96 "Hg15 mi
7:00 AM73 °FOvercast.2 mph69%29.96 "Hg15 mi
6:00 AM70 °FPassing clouds.2 mph78%29.95 "Hg15 mi
5:00 AM70 °FPassing clouds.6 mph78%29.96 "Hg15 mi
4:00 AM72 °FPassing clouds.5 mph73%29.96 "Hg15 mi
3:00 AM73 °FClear.8 mph74%29.98 "Hg15 mi
2:00 AM75 °FPassing clouds.No wind69%29.98 "Hg15 mi
1:00 AM77 °FPassing clouds.3 mph65%29.98 "Hg15 mi
12:00 AM77 °FPassing clouds.5 mph57%29.98 "Hg15 mi
11:00 PM
Tue, Jul 28
79 °FPassing clouds.2 mph51%29.98 "Hg15 mi
10:00 PM81 °FPassing clouds.5 mph45%29.96 "Hg15 mi
9:00 PM82 °FPartly sunny.6 mph37%29.96 "Hg15 mi
8:00 PM84 °FPartly sunny.7 mph37%29.95 "Hg15 mi
7:00 PM86 °FPartly sunny.8 mph38%29.96 "Hg15 mi
6:00 PM88 °FPartly sunny.12 mph35%29.97 "Hg15 mi
5:00 PM90 °FPartly sunny.9 mph33%29.97 "Hg15 mi
4:00 PM90 °FPartly sunny.10 mph33%29.97 "Hg15 mi
3:00 PM91 °FPartly sunny.6 mph34%29.98 "Hg15 mi
2:00 PM90 °FPartly sunny.7 mph36%29.99 "Hg15 mi
1:00 PM88 °FScattered clouds.9 mph38%30.01 "Hg15 mi
12:00 PM88 °FPassing clouds.3 mph31%30.01 "Hg15 mi
11:00 AM84 °FSunny.2 mph35%30.02 "Hg15 mi
10:00 AM82 °FSunny.3 mph40%30.02 "Hg15 mi
Weather by CustomWeather, © 2015

See weather overviewHow to use our weather pages